Regional Weather Roundup
Issued by NWS

Home | Current Version | Previous Version | Text Only | Print | Product List | Glossary Off
Versions: 1 2 3 4 5 6 7 8 9 10 11 12 13 14 15 16 17 18 19 20 21 22 23 24 25 26 27 28 29 30 31 32 33 34 35 36 37 38 39 40 41 42 43 44 45 46 47 48 49 50

000
ASUS45 KBOU 190810
RWRCO

WEATHER ROUNDUP FOR COLORADO
NATIONAL WEATHER SERVICE DENVER/BOULDER CO
100 AM MST SUN NOV 19 2017

NOTE: "FAIR" INDICATES FEW OR NO CLOUDS BELOW 12000 FEET WITH NO
SIGNIFICANT WEATHER AND/OR OBSTRUCTIONS TO VISIBILITY.

COZ001>005-013-030-031-190900-
...NORTHWEST COLORADO...

CITY           SKY/WX    TMP DP  RH WIND       PRES   REMARKS
CRAIG          FAIR      12   7  80 CALM      30.37F
HAYDEN         FAIR      16   9  74 E12       30.37F WCI   3
MEEKER         FAIR      15  10  80 MISG      30.37F
RABBIT EARS PA FAIR      18   5  57 SW6       30.31S WCI   9
STEAMBOAT SPGS FAIR      11   9  89 CALM      30.37S
WALDEN         FAIR       9   1  72 SE8       30.32S WCI  -4
$$

COZ006>008-011-190900-
...WEST CENTRAL VALLEYS...

CITY           SKY/WX    TMP DP  RH WIND       PRES   REMARKS
GRAND JUNCTION FAIR      18  14  84 E3        30.39F
MONTROSE       FAIR      22  17  81 S7        30.42F WCI  13
EAGLE          FAIR      16  12  84 SE3       30.43F
RIFLE          FAIR      21  16  81 CALM      30.42F
DELTA          FAIR      24  17  73 NE5       30.42F WCI  18
NUCLA          FAIR      23  14  68 E8        30.43S WCI  14
$$

COZ017>023-064>068-190900-
...SOUTHWEST COLORADO...

CITY           SKY/WX    TMP DP  RH WIND       PRES   REMARKS
DURANGO        FAIR      18  12  77 NE3       30.37F
CORTEZ         FAIR      13   8  81 E5        30.38F WCI   5
PAGOSA SPRINGS FAIR      22  15  76 CALM      30.37F
TELLURIDE      FAIR      23   6  48 SE8       30.39F WCI  13
WOLF CREEK PAS FAIR      23  -8  25 SW8       30.45S WCI  14
$$

COZ009-010-012-014-032>034-037-058>063-190900-
...CENTRAL COLORADO...

CITY           SKY/WX    TMP DP  RH WIND       PRES   REMARKS
ASPEN          FAIR      13   7  77 S7        30.35F WCI   3
BUENA VISTA    FAIR      19  10  65 NW7       30.33F WCI  10
COPPER MTN     FAIR      23   0  36 MISG      30.33S
BERTHOUD PASS  FAIR      12   1  62 NW43G49   30.22S WCI -12
COTTONWOOD PAS FAIR      32   0  25 CALM      30.33S
GUNNISON       FAIR      11   7  84 N3        30.44S
KREMMLING      FAIR      18  12  79 CALM      30.40S
LEADVILLE      FAIR       3  -3  76 NE3       30.31F
MONARCH PASS   FAIR      14   0  52 W35       30.43S WCI  -8
SALIDA         FAIR      27  11  50 N15G21    30.39S WCI  15
SUNLIGHT       FAIR      18   0  45 SW10      30.39F WCI   6
WILKERSON PASS FAIR      19  -4  35 SW12      30.34F WCI   7
$$

COZ069>075-190900-
...SAN LUIS VALLEY/SANGRE DE CRISTO MOUNTAINS...

CITY           SKY/WX    TMP DP  RH WIND       PRES   REMARKS
ALAMOSA        FAIR      10   5  80 SW6       30.37S WCI   0
DEL NORTE      FAIR      20   9  63 W15       30.37F WCI   6
LA VETA PASS   FAIR      23   5  46 SW30G38     N/A  WCI   5
SAGUACHE       FAIR      19   5  53 N10       30.38S WCI   8
$$

COZ035-036-038>040-190900-
...NORTHERN COLORADO FRONT RANGE...

CITY           SKY/WX    TMP DP  RH WIND       PRES   REMARKS
DENVER INTL AP FAIR      31  16  54 SW10      30.20S WCI  22
DMNS CITY PARK   N/A     31  17  57 E7        30.20S WCI  24
AURORA         PTCLDY    30  14  50 S8        30.20F WCI  22
FRONT RANGE AP FAIR      28  20  74 S6        30.20F WCI  21
ERIE MUNI ARPT FAIR      23  19  81 CALM      30.26S
BOULDER MUN AP FAIR      30  18  59 NE5       30.20S WCI  25
CENTENNIAL     FAIR      27  16  63 S7        30.20F WCI  19
BROOMFIELD     FAIR      32  19  59 N5        30.20F WCI  27
FORT COLLINS   FAIR      26  19  74 N5        30.22F WCI  20
LONGMONT       FAIR      24  18  77 NW3       30.23F
$$

COZ041-046-047-076>085-087-088-190900-
...PIKES PEAK/PALMER DIVIDE AND SOUTHERN FOOTHILLS...

CITY           SKY/WX    TMP DP  RH WIND       PRES   REMARKS
COLO. SPRINGS  FAIR      23  17  78 N8        30.23F WCI  14
A. F. ACADEMY  FAIR      20  15  80 N3        30.22F
SCHRIEVER AFB  FAIR      26  16  66 N3        30.23F
CHEYENNE MTN   FAIR      35   7  30 CALM      30.17F
ELLICOTT       NOT AVBL
FALCON         FAIR      22  17  79 NW7       30.23F WCI  14
FORT CARSON    FAIR      24  17  75 NW8       30.21F WCI  15
LIMON          FAIR      12  10  92 N7        30.23F WCI   1
MONUMENT HILL  FAIR      30  10  43 SW10      30.23F WCI  21
CANON CITY     FAIR      37  14  38 W16       30.22F
WALSENBURG     FAIR      36   9  32 SW3       30.23S
TRINIDAD       FAIR      29  18  63 W10       30.24F WCI  20
$$

COZ042>045-048>051-090-091-190900-
...NORTHEAST COLORADO...

CITY           SKY/WX    TMP DP  RH WIND       PRES   REMARKS
GREELEY ARPT   FAIR      18  14  84 N6        30.23S WCI  10
AKRON          FAIR      28  13  53 S8        30.22F WCI  20
BURLINGTON     FAIR      17  11  77 SW7       30.25F WCI   8
WRAY           NOT AVBL
YUMA           FAIR      21  14  73 S10       30.23F WCI  10
STERLING       FAIR      23  18  80 SW7       30.23S WCI  15
HOLYOKE        FAIR      21  16  79 W7        30.23F WCI  13
FORT MORGAN    FAIR      22  13  66 CALM      30.22F
$$

COZ086-089-092>099-190900-
...SOUTHEAST COLORADO...

CITY           SKY/WX    TMP DP  RH WIND       PRES   REMARKS
PUEBLO         FAIR      23  19  85 W6        30.24F WCI  16
LA JUNTA       FAIR      27  17  66 CALM      30.24F
LAMAR          FAIR      19  12  74 CALM      30.23F
SPRINGFIELD      N/A     33  16  49 S13       30.23F WCI  24
$$



USA.gov is the U.S. government's official web portal to all federal, state and local government web resources and services.